GW4987 Weather Reports


time (UTC)temp
F
wind
direction
speed
knots
gust
knots
rain 1hr
in
rain 24hr
in
rain mn
in
humidity
%
barometer
mb
20260903160005 73 190 7.0 10.4 0.00 0.00 0.00 44 1021.7
20260903154504 73 111 7.0 8.7 0.00 0.00 0.00 43 1021.8
20260903154004 72 139 7.8 13.9 0.00 0.00 0.00 44 1021.6
20260903153504 73 177 2.6 5.2 0.00 0.00 0.00 44 1021.6
20260903153004 72 124 2.6 2.6 0.00 0.00 0.00 45 1021.7
20260903152503 72 194 12.2 13.0 0.00 0.00 0.00 44 1021.8
20260903152004 71 127 7.0 7.8 0.00 0.00 0.00 45 1021.6
20260903151503 71 169 2.6 3.5 0.00 0.00 0.00 46 1021.5
20260903151003 71 169 2.6 3.5 0.00 0.00 0.00 46 1021.6
20260903150504 71 226 7.0 13.9 0.00 0.00 0.00 45 1021.6
20260903150004 71 179 6.1 13.0 0.00 0.00 0.00 46 1021.7
20260903145504 70 182 6.1 6.1 0.00 0.00 0.00 47 1021.6
20260903145004 71 163 4.3 4.3 0.00 0.00 0.00 46 1021.6
20260903144504 70 162 2.6 4.3 0.00 0.00 0.00 47 1021.7
20260903144004 69 172 8.7 14.8 0.00 0.00 0.00 48 1021.6
20260903143504 69 172 8.7 14.8 0.00 0.00 0.00 48 1021.6
20260903143004 69 172 8.7 14.8 0.00 0.00 0.00 48 1021.6
20260903142503 68 164 7.8 14.8 0.00 0.00 0.00 48 1021.5
20260903142004 66 196 4.3 6.1 0.00 0.00 0.00 53 1021.6
20260903141503 66 196 4.3 6.1 0.00 0.00 0.00 53 1021.6
20260903141003 66 196 4.3 6.1 0.00 0.00 0.00 53 1021.6
20260903140503 66 196 4.3 6.1 0.00 0.00 0.00 53 1021.5
20260903140003 66 196 4.3 6.1 0.00 0.00 0.00 53 1021.4
20260903135503 66 196 4.3 6.1 0.00 0.00 0.00 53 1021.4
20260903135004 66 196 4.3 6.1 0.00 0.00 0.00 53 1021.5
20260903133004 64 180 3.5 4.3 0.00 0.00 0.00 51 1021.1
20260903132504 64 180 3.5 4.3 0.00 0.00 0.00 51 1021.3
20260903132004 64 180 3.5 4.3 0.00 0.00 0.00 51 1021.1
20260903131504 64 180 3.5 4.3 0.00 0.00 0.00 51 1020.9
20260903131004 64 180 3.5 4.3 0.00 0.00 0.00 51 1020.8
20260903130504 64 180 3.5 4.3 0.00 0.00 0.00 51 1020.9
20260903130003 64 180 3.5 4.3 0.00 0.00 0.00 51 1020.9
20260903125503 64 186 1.7 2.6 0.00 0.00 0.00 46 1020.8
20260903125004 64 186 1.7 2.6 0.00 0.00 0.00 46 1020.7
20260903124503 64 186 1.7 2.6 0.00 0.00 0.00 46 1020.9
20260903124003 64 186 1.7 2.6 0.00 0.00 0.00 46 1020.8
20260903123504 64 186 1.7 2.6 0.00 0.00 0.00 46 1020.8
20260903123004 64 186 1.7 2.6 0.00 0.00 0.00 46 1020.9
20260903122504 64 186 1.7 2.6 0.00 0.00 0.00 46 1020.8
20260903122004 64 186 1.7 2.6 0.00 0.00 0.00 46 1020.9
20260903121504 64 148 1.7 2.6 0.00 0.00 0.00 45 1020.8
20260903121004 65 129 4.3 4.3 0.00 0.00 0.00 44 1020.8
20260903120504 65 206 3.5 3.5 0.00 0.00 0.00 46 1020.9
20260903120004 65 206 3.5 3.5 0.00 0.00 0.00 46 1020.8
20260903115503 65 206 3.5 3.5 0.00 0.00 0.00 46 1020.5
20260903113504 65 206 3.5 3.5 0.00 0.00 0.00 46 1020.9
20260903113004 65 206 3.5 3.5 0.00 0.00 0.00 46 1020.8
20260903111004 63 121 2.6 2.6 0.00 0.00 0.00 44 1020.7
20260903110504 63 121 2.6 2.6 0.00 0.00 0.00 44 1020.8
20260903110003 63 121 2.6 2.6 0.00 0.00 0.00 44 1020.7
20260903105504 63 121 2.6 2.6 0.00 0.00 0.00 44 1021.0
20260903105004 63 121 2.6 2.6 0.00 0.00 0.00 44 1020.9
20260903104504 63 121 2.6 2.6 0.00 0.00 0.00 44 1021.0
20260903104004 63 121 2.6 2.6 0.00 0.00 0.00 44 1021.0
20260903103504 63 121 2.6 2.6 0.00 0.00 0.00 44 1021.0
20260903103003 63 121 2.6 2.6 0.00 0.00 0.00 44 1021.0
20260903102503 63 121 2.6 2.6 0.00 0.00 0.00 44 1021.3
20260903102003 63 279 1.7 1.7 0.00 0.00 0.00 47 1021.0
20260903100504 67 192 2.6 6.1 0.00 0.00 0.00 41 1021.0
20260903100004 67 192 2.6 6.1 0.00 0.00 0.00 41 1020.9
20260903095504 66 184 4.3 6.1 0.00 0.00 0.00 42 1021.0
20260903092503 62 97 3.5 3.5 0.00 0.00 0.00 40 1021.6
20260903092004 62 97 3.5 3.5 0.00 0.00 0.00 40 1021.4
20260903091504 62 97 3.5 3.5 0.00 0.00 0.00 40 1021.3
20260903085503 62 97 3.5 3.5 0.00 0.00 0.00 40 1021.4
20260903085003 62 97 3.5 3.5 0.00 0.00 0.00 40 1021.1
20260903084503 62 97 3.5 3.5 0.00 0.00 0.00 40 1021.0
20260903084004 62 97 3.5 3.5 0.00 0.00 0.00 40 1021.1
20260903083503 62 97 3.5 3.5 0.00 0.00 0.00 40 1021.3
20260903083003 62 97 3.5 3.5 0.00 0.00 0.00 40 1021.4
20260903082503 65 269 2.6 2.6 0.00 0.00 0.00 32 1021.4
20260903082003 65 269 2.6 2.6 0.00 0.00 0.00 32 1021.4
20260903081504 65 269 2.6 2.6 0.00 0.00 0.00 32 1021.3
20260903081003 65 269 2.6 2.6 0.00 0.00 0.00 32 1021.4
20260903080503 65 269 2.6 2.6 0.00 0.00 0.00 32 1021.6
20260903080004 65 269 2.6 2.6 0.00 0.00 0.00 32 1021.6
20260903075503 65 269 2.6 2.6 0.00 0.00 0.00 32 1021.5
20260903075003 65 269 2.6 2.6 0.00 0.00 0.00 32 1021.7
20260903074503 65 269 2.6 2.6 0.00 0.00 0.00 32 1021.5
20260903074004 65 269 2.6 2.6 0.00 0.00 0.00 32 1021.7
20260903073504 65 269 2.6 2.6 0.00 0.00 0.00 32 1021.6
20260903073004 65 269 2.6 2.6 0.00 0.00 0.00 32 1021.8
20260903071003 67 232 3.5 3.5 0.00 0.00 0.00 33 1021.7
20260903070503 67 232 3.5 3.5 0.00 0.00 0.00 33 1021.6
20260903070004 67 232 3.5 3.5 0.00 0.00 0.00 33 1021.7
20260903065504 67 232 3.5 3.5 0.00 0.00 0.00 33 1021.8
20260903065004 67 232 3.5 3.5 0.00 0.00 0.00 33 1021.8
20260903064504 67 232 3.5 3.5 0.00 0.00 0.00 33 1021.7
20260903064003 67 232 3.5 3.5 0.00 0.00 0.00 33 1021.7
20260903063503 67 232 3.5 3.5 0.00 0.00 0.00 33 1021.8
20260903063003 67 232 3.5 3.5 0.00 0.00 0.00 33 1021.7
20260903061004 69 182 6.1 7.0 0.00 0.00 0.00 32 1021.9
20260903060504 69 182 6.1 7.0 0.00 0.00 0.00 32 1021.8
20260903060004 69 182 6.1 7.0 0.00 0.00 0.00 32 1021.7
20260903055504 69 182 6.1 7.0 0.00 0.00 0.00 32 1021.8
20260903055004 69 182 6.1 7.0 0.00 0.00 0.00 32 1021.7
20260903054503 69 182 6.1 7.0 0.00 0.00 0.00 32 1021.5
20260903054003 69 215 7.8 7.8 0.00 0.00 0.00 33 1021.6
20260903053504 69 179 6.1 8.7 0.00 0.00 0.00 34 1021.5
20260903053003 69 179 6.1 8.7 0.00 0.00 0.00 34 1021.4
20260903052503 69 179 6.1 8.7 0.00 0.00 0.00 34 1021.4
20260903052003 69 179 6.1 8.7 0.00 0.00 0.00 34 1021.5
20260903033004 72 213 8.7 10.4 0.00 0.00 0.00 36 1021.4
20260903032504 72 213 8.7 10.4 0.00 0.00 0.00 36 1021.4
20260903032004 72 213 8.7 10.4 0.00 0.00 0.00 36 1021.5
20260903031504 72 213 8.7 10.4 0.00 0.00 0.00 36 1021.1
20260903031003 72 213 8.7 10.4 0.00 0.00 0.00 36 1021.1
20260903030504 72 213 8.7 10.4 0.00 0.00 0.00 36 1021.0
20260903030004 72 213 8.7 10.4 0.00 0.00 0.00 36 1021.1
20260903025504 72 213 8.7 10.4 0.00 0.00 0.00 36 1021.0
20260903025004 72 213 8.7 10.4 0.00 0.00 0.00 36 1021.0
20260903024504 72 213 8.7 10.4 0.00 0.00 0.00 36 1020.8
20260903024004 73 200 7.0 7.8 0.00 0.00 0.00 37 1020.7
20260903023504 73 200 7.0 7.8 0.00 0.00 0.00 37 1020.7
20260903023003 73 200 7.0 7.8 0.00 0.00 0.00 37 1020.6
20260903022504 73 200 7.0 7.8 0.00 0.00 0.00 37 1020.9
20260903022004 73 200 7.0 7.8 0.00 0.00 0.00 37 1020.8
20260903021504 73 211 9.6 9.6 0.00 0.00 0.00 36 1020.8
20260903021004 74 200 9.6 12.2 0.00 0.00 0.00 36 1020.7
20260903020504 74 200 9.6 12.2 0.00 0.00 0.00 36 1020.8
20260903020004 74 200 9.6 12.2 0.00 0.00 0.00 36 1021.0
20260903015504 74 200 9.6 12.2 0.00 0.00 0.00 36 1020.8
20260903015004 74 226 7.0 16.5 0.00 0.00 0.00 36 1020.7
20260903014503 75 203 11.3 13.0 0.00 0.00 0.00 35 1020.7
20260903014003 75 203 11.3 13.0 0.00 0.00 0.00 35 1020.7
20260903013503 75 203 11.3 13.0 0.00 0.00 0.00 35 1020.8
20260903013003 76 204 11.3 14.8 0.00 0.00 0.00 34 1020.7
20260903012503 76 247 12.2 13.0 0.00 0.00 0.00 33 1020.6
20260903012003 76 247 12.2 13.0 0.00 0.00 0.00 33 1020.6
20260903011504 76 229 6.1 10.4 0.00 0.00 0.00 34 1020.9
20260903011004 77 211 7.8 8.7 0.00 0.00 0.00 34 1020.8
20260903010503 77 204 9.6 14.8 0.00 0.00 0.00 33 1020.9
20260903010004 77 217 11.3 16.5 0.00 0.00 0.00 34 1020.7
20260903005504 78 169 8.7 17.4 0.00 0.00 0.00 34 1020.8
20260903005003 77 176 7.0 13.0 0.00 0.00 0.00 34 1020.8
20260903004504 78 191 4.3 7.0 0.00 0.00 0.00 33 1020.6
20260903004004 78 204 7.0 18.2 0.00 0.00 0.00 33 1020.8
20260903003504 78 175 5.2 9.6 0.00 0.00 0.00 33 1020.8
20260903003003 78 207 14.8 20.0 0.00 0.00 0.00 34 1020.7
20260903002503 77 214 12.2 12.2 0.00 0.00 0.00 34 1020.7
20260903002003 78 210 7.8 13.0 0.00 0.00 0.00 34 1020.8
20260903001503 78 159 11.3 22.6 0.00 0.00 0.00 33 1021.0
20260903001004 79 217 6.1 8.7 0.00 0.00 0.00 34 1020.8
20260903000504 78 213 11.3 21.7 0.00 0.00 0.00 35 1020.7
20260903000005 78 221 6.1 19.1 0.00 0.00 0.00 35 1020.9
20260902235503 78 208 14.8 14.8 0.00 0.00 0.00 35 1020.7
20260902235003 78 218 10.4 16.5 0.00 0.00 0.00 35 1020.8
20260902234504 79 226 9.6 13.9 0.00 0.00 0.00 35 1021.1
20260902232504 78 232 5.2 9.6 0.00 0.00 0.00 37 1020.8
20260902232004 78 232 5.2 9.6 0.00 0.00 0.00 37 1021.1
20260902230003 80 191 2.6 10.4 0.00 0.00 0.00 37 1021.0
20260902225503 79 198 13.9 15.6 0.00 0.00 0.00 38 1021.0
20260902225004 79 219 7.0 18.2 0.00 0.00 0.00 38 1021.0
20260902224503 80 228 7.0 15.6 0.00 0.00 0.00 37 1021.5
20260902224003 79 211 11.3 15.6 0.00 0.00 0.00 38 1021.3
20260902223504 78 254 7.0 13.9 0.00 0.00 0.00 40 1021.3
20260902223004 78 189 7.0 12.2 0.00 0.00 0.00 40 1021.4
20260902222504 80 206 11.3 13.0 0.00 0.00 0.00 39 1021.4
20260902222004 79 277 9.6 19.1 0.00 0.00 0.00 40 1021.5
20260902221504 80 203 10.4 17.4 0.00 0.00 0.00 39 1021.4
20260902221004 81 183 6.1 11.3 0.00 0.00 0.00 38 1021.4
20260902220504 80 199 7.8 13.0 0.00 0.00 0.00 39 1021.5
20260902220003 79 212 23.5 23.5 0.00 0.00 0.00 39 1021.6
20260902215503 79 210 4.3 12.2 0.00 0.00 0.00 40 1021.6
20260902215004 78 225 12.2 24.3 0.00 0.00 0.00 39 1021.8
20260902214504 78 225 13.0 25.2 0.00 0.00 0.00 38 1021.7
20260902214004 79 211 15.6 18.2 0.00 0.00 0.00 39 1021.8
20260902213504 79 221 9.6 14.8 0.00 0.00 0.00 38 1021.8
20260902213004 79 215 13.9 17.4 0.00 0.00 0.00 39 1021.7
20260902212504 81 204 15.6 16.5 0.00 0.00 0.00 39 1022.0
20260902212005 80 209 9.6 13.0 0.00 0.00 0.00 39 1021.8
20260902211504 80 209 9.6 13.0 0.00 0.00 0.00 39 1022.2
20260902211004 78 217 13.0 13.9 0.00 0.00 0.00 40 1021.9
20260902210504 78 217 13.0 13.9 0.00 0.00 0.00 40 1022.3
20260902210004 78 217 13.0 13.9 0.00 0.00 0.00 40 1022.3
20260902205504 78 217 13.0 13.9 0.00 0.00 0.00 40 1022.2
20260902205004 78 217 13.0 13.9 0.00 0.00 0.00 40 1022.0
20260902204504 78 217 13.0 13.9 0.00 0.00 0.00 40 1022.3
20260902204004 78 217 13.0 13.9 0.00 0.00 0.00 40 1022.2
20260902203504 78 217 13.0 13.9 0.00 0.00 0.00 40 1022.2
20260902203003 78 217 13.0 13.9 0.00 0.00 0.00 40 1022.2
20260902202504 78 199 8.7 24.3 0.00 0.00 0.00 44 1022.4
20260902202004 76 232 9.6 19.1 0.00 0.00 0.00 46 1022.3
20260902201506 77 226 7.8 16.5 0.00 0.00 0.00 46 1022.3
20260902201004 78 212 14.8 17.4 0.00 0.00 0.00 45 1022.4
20260902192503 76 165 6.1 16.5 0.00 0.00 0.00 47 1022.7
20260902192004 76 212 13.9 21.7 0.00 0.00 0.00 46 1022.6
20260902191503 78 207 12.2 16.5 0.00 0.00 0.00 45 1022.6
20260902191004 78 231 15.6 16.5 0.00 0.00 0.00 44 1022.7
20260902190504 78 168 13.0 19.1 0.00 0.00 0.00 45 1022.8
20260902190005 77 210 13.9 19.1 0.00 0.00 0.00 44 1022.8
20260902185504 78 215 16.5 17.4 0.00 0.00 0.00 44 1022.9
20260902185003 78 185 8.7 17.4 0.00 0.00 0.00 44 1022.7
20260902184505 76 189 7.0 28.7 0.00 0.00 0.00 46 1023.0
20260902183004 77 199 13.0 16.5 0.00 0.00 0.00 48 1022.8
20260902182504 75 211 11.3 18.2 0.00 0.00 0.00 49 1022.9
20260902182004 75 211 11.3 18.2 0.00 0.00 0.00 49 1022.9
20260902181504 75 211 11.3 18.2 0.00 0.00 0.00 49 1023.0
20260902181004 76 252 6.1 12.2 0.00 0.00 0.00 48 1023.0
20260902180504 76 252 6.1 12.2 0.00 0.00 0.00 48 1023.0
20260902174503 75 213 19.1 20.9 0.00 0.00 0.00 49 1023.1
20260902174003 76 207 13.9 15.6 0.00 0.00 0.00 48 1023.4
20260902173504 74 182 10.4 12.2 0.00 0.00 0.00 50 1023.4
20260902173003 74 182 10.4 12.2 0.00 0.00 0.00 50 1023.5
20260902172503 76 225 9.6 16.5 0.00 0.00 0.00 48 1023.2
20260902172004 74 215 7.0 16.5 0.00 0.00 0.00 49 1023.2
20260902171504 76 186 7.0 14.8 0.00 0.00 0.00 47 1023.6
20260902171004 76 191 6.1 10.4 0.00 0.00 0.00 47 1023.1
20260902170504 76 191 6.1 10.4 0.00 0.00 0.00 47 1023.2
20260902164504 75 175 11.3 13.9 0.00 0.00 0.00 48 1023.1
20260902164004 74 197 7.0 11.3 0.00 0.00 0.00 47 1023.2
20260902163504 74 169 9.6 11.3 0.00 0.00 0.00 47 1023.1
20260902163003 74 178 15.6 23.5 0.00 0.00 0.00 47 1023.0
20260902162504 74 141 7.0 13.9 0.00 0.00 0.00 46 1023.2
20260902162005 74 228 12.2 13.9 0.00 0.00 0.00 47 1022.8